User: anonymous   Login
Location: Newark
(55.2831°N, 38.7366°E)
Time: 04:55:28
(UTC+00:00)
Language:

EO-88 - Orbit

View from above orbital plane
View from above orbital plane
View from above satellite
View from above satellite

Ground track
Ground track

The orbit data is extracted from the following two-line orbital elements,

1 42017U 17008BX  19258.17817156  .00001045  00000-0  43832-4 0  9995
2 42017  97.3960 324.3347 0005452 203.0501 157.0494 15.25704528143415
Epoch (UTC): 15 September 2019 04:16:34
Eccentricity: 0.0005452
inclination: 97.3960°
perigee height: 485 km
apogee height: 492 km
right ascension of ascending node: 324.3347°
argument of perigee: 203.0501°
revolutions per day: 15.25704528
mean anomaly at epoch: 157.0494°
orbit number at epoch: 14341

The dashed part of the orbit path shows where the satellite is in the earth's shadow,  

DLR